Location: Artiguedieu
(43.5000°N, 0.5454°E)
Time: 21:16:59
(UTC+00:00)

Vanguard 1 - Pass Details

Date: 30 July 2021
Orbit: 652 x 3831 km, 34.3° (Epoch: 19 September)

Event Time Altitude Azimuth Distance (km) Brightness Sun altitude
Rises 10:09:25 0° 214° (SW) 3,006 12.6 55.2°
Reaches altitude 10° 10:12:05 10° 195° (SSW) 2,226 12.2 55.6°
Maximum altitude 10:15:39 19° 149° (SSE) 1,926 12.5 56.1°
Drops below altitude 10° 10:20:15 10° 105° (ESE) 2,980 13.2 56.7°
Sets 10:24:37 0° 90° (E) 4,467 13.8 57.3°
